Regional Weather Roundup
Issued by NWS

Home | Current Version | Previous Version | Text Only | Print | Product List | Glossary On
Versions: 1 2 3 4 5 6 7 8 9 10 11 12 13 14 15 16 17 18 19 20 21 22 23 24 25 26 27 28 29 30 31 32 33 34 35 36 37 38 39 40 41 42 43 44 45 46 47 48 49 50
000
ASCA42 TJSJ 012110
RWRPR
PUERTO RICO/U.S. VIRGIN ISLANDS HOURLY WEATHER ROUNDUP
NATIONAL WEATHER SERVICE SAN JUAN PR
500 PM AST SUN MAR 01 2015

PRZ001-004-012200-
PUERTO RICO

CITY           SKY/WX    TMP DP  RH WIND       PRES   REMARKS
SAN JUAN LMM   MOSUNNY   82  68  61 NE16G23   30.08S
AGUADILLA      MOSUNNY   81  64  57 E21G29    30.09R
CEIBA          MOSUNNY   81  64  57 NE13G20   30.10R
$$

PRZ006-007-012200-
U.S. VIRGIN ISLANDS

CITY           SKY/WX    TMP DP  RH WIND       PRES   REMARKS
CHRISTIANSTED  MOSUNNY   81  66  61 NE16G23   30.07S
$$

HOURLY WEATHER ROUNDUP FOR THE NEWS MEDIA

CITY           SKY/WX    TMP DP  RH WIND       PRES   REMARKS
ORLANDO        PTSUNNY   78  68  71 E10       30.28F
NEW YORK       LGTSLEET  26  22  84 SW3       30.43F
NEWARK         SNOW      25  21  86 S3        30.42F VSB 1/2
CHICAGO        PTSUNNY   25  15  66 SW12      30.27F WCI  14
HARTFORD       LGT SNOW  28  25  88 S6        30.44F FOG     WCI  22
BOSTON         LGT SNOW  27  21  78 S9        30.44F WCI  18
DALLAS         CLOUDY    37  36  93 N13       30.32F WCI  29
PHILADELPHIA   FRZ RAIN  29  26  89 SW5       30.42F FOG     WCI  24
LOS ANGELES    PTSUNNY   61  47  59 SE9G16    29.90F
WASHINGTON DC  FRZ RAIN  29  26  89 S6        30.38F WCI  23


USA.gov is the U.S. government's official web portal to all federal, state and local government web resources and services.